Time,TemperatureF,DewpointF,PressureIn,WindDirection,WindDirectionDegrees,WindSpeedMPH,WindSpeedGustMPH,Humidity,HourlyPrecipIn,Conditions,Clouds,dailyrainin,SoftwareType,DateUTC
2013-12-06 00:02:00,33.8,28.5,29.45,North,0,0.0,0.0,81,0.00,,,0.00,WUHU216HW,2013-12-06 06:02:00,
2013-12-06 00:07:00,33.8,28.5,29.45,North,0,0.0,0.0,81,0.00,,,0.00,WUHU216HW,2013-12-06 06:07:00,
2013-12-06 00:12:00,33.8,28.5,29.45,North,0,0.0,0.0,81,0.00,,,0.00,WUHU216HW,2013-12-06 06:12:00,
2013-12-06 00:17:00,33.8,28.8,29.45,North,0,0.0,0.0,82,0.00,,,0.00,WUHU216HW,2013-12-06 06:17:00,
2013-12-06 00:22:00,33.7,28.7,29.45,North,0,0.0,0.0,82,0.00,,,0.00,WUHU216HW,2013-12-06 06:22:00,
2013-12-06 00:27:00,33.7,28.7,29.45,North,0,0.0,0.0,82,0.00,,,0.00,WUHU216HW,2013-12-06 06:27:00,
2013-12-06 00:32:00,33.5,28.5,29.45,North,0,0.0,0.0,82,0.00,,,0.00,WUHU216HW,2013-12-06 06:32:00,
2013-12-06 00:38:00,33.5,28.5,29.45,North,0,0.0,0.0,82,0.00,,,0.00,WUHU216HW,2013-12-06 06:38:00,
2013-12-06 00:43:00,33.5,28.5,29.45,North,0,0.0,0.0,82,0.00,,,0.00,WUHU216HW,2013-12-06 06:43:00,
2013-12-06 00:48:00,33.5,28.5,29.44,North,0,0.0,0.0,82,0.00,,,0.00,WUHU216HW,2013-12-06 06:48:00,
2013-12-06 00:53:00,33.3,28.6,29.43,North,0,0.0,0.0,83,0.00,,,0.00,WUHU216HW,2013-12-06 06:53:00,
2013-12-06 00:58:00,33.3,28.6,29.44,North,0,0.0,0.0,83,0.00,,,0.00,WUHU216HW,2013-12-06 06:58:00,
2013-12-06 01:03:00,33.3,28.6,29.44,North,0,0.0,0.0,83,0.00,,,0.00,WUHU216HW,2013-12-06 07:03:00,
2013-12-06 01:08:00,33.3,28.6,29.44,North,0,0.0,0.0,83,0.00,,,0.00,WUHU216HW,2013-12-06 07:08:00,
2013-12-06 01:13:00,33.3,28.6,29.44,North,0,0.0,0.0,83,0.00,,,0.00,WUHU216HW,2013-12-06 07:13:00,
2013-12-06 01:18:00,33.3,28.6,29.44,North,0,0.0,0.0,83,0.00,,,0.00,WUHU216HW,2013-12-06 07:18:00,
2013-12-06 01:23:00,33.3,28.6,29.44,North,0,0.0,0.0,83,0.00,,,0.00,WUHU216HW,2013-12-06 07:23:00,
2013-12-06 01:28:00,33.5,28.8,29.44,North,0,0.0,0.0,83,0.00,,,0.00,WUHU216HW,2013-12-06 07:28:00,
2013-12-06 01:33:00,33.5,28.5,29.46,North,0,0.0,0.0,82,0.00,,,0.00,WUHU216HW,2013-12-06 07:33:00,
2013-12-06 01:38:00,33.5,28.8,29.47,North,0,0.0,0.0,83,0.00,,,0.00,WUHU216HW,2013-12-06 07:38:00,
2013-12-06 01:43:00,33.3,28.6,29.47,North,0,0.0,0.0,83,0.00,,,0.00,WUHU216HW,2013-12-06 07:43:00,
2013-12-06 01:48:00,33.3,28.6,29.47,North,0,0.0,0.0,83,0.00,,,0.00,WUHU216HW,2013-12-06 07:48:00,
2013-12-06 01:53:00,33.1,28.8,29.46,North,0,0.0,0.0,84,0.00,,,0.00,WUHU216HW,2013-12-06 07:53:00,
2013-12-06 01:58:00,32.8,28.7,29.45,North,0,0.0,0.0,85,0.00,,,0.00,WUHU216HW,2013-12-06 07:58:00,
2013-12-06 02:03:00,32.6,28.5,29.44,North,0,0.0,0.0,85,0.00,,,0.00,WUHU216HW,2013-12-06 08:03:00,
2013-12-06 02:08:00,32.4,28.5,29.45,North,0,0.0,0.0,85,0.00,,,0.00,WUHU216HW,2013-12-06 08:08:00,
2013-12-06 02:14:00,32.2,28.3,29.45,North,0,0.0,0.0,85,0.00,,,0.00,WUHU216HW,2013-12-06 08:14:00,
2013-12-06 02:19:00,32.0,28.1,29.45,North,0,0.0,0.0,85,0.00,,,0.00,WUHU216HW,2013-12-06 08:19:00,
2013-12-06 02:24:00,32.0,28.4,29.44,North,0,0.0,0.0,86,0.00,,,0.00,WUHU216HW,2013-12-06 08:24:00,
2013-12-06 02:29:00,32.0,28.1,29.44,North,0,0.0,0.0,85,0.00,,,0.00,WUHU216HW,2013-12-06 08:29:00,
2013-12-06 02:34:00,32.0,28.4,29.44,North,0,0.0,0.0,86,0.00,,,0.00,WUHU216HW,2013-12-06 08:34:00,
2013-12-06 02:39:00,32.0,28.4,29.45,North,0,0.0,0.0,86,0.00,,,0.00,WUHU216HW,2013-12-06 08:39:00,
2013-12-06 02:44:00,31.9,27.9,29.46,North,0,0.0,0.0,85,0.00,,,0.00,WUHU216HW,2013-12-06 08:44:00,
2013-12-06 02:49:00,32.0,28.1,29.47,North,0,0.0,0.0,85,0.00,,,0.00,WUHU216HW,2013-12-06 08:49:00,
2013-12-06 02:54:00,32.0,28.1,29.46,North,0,0.0,0.0,85,0.00,,,0.00,WUHU216HW,2013-12-06 08:54:00,
2013-12-06 02:59:00,32.0,28.1,29.47,North,0,0.0,0.0,85,0.00,,,0.00,WUHU216HW,2013-12-06 08:59:00,
2013-12-06 03:04:00,32.0,28.1,29.47,North,0,0.0,0.0,85,0.00,,,0.00,WUHU216HW,2013-12-06 09:04:00,
2013-12-06 03:09:00,32.0,28.4,29.47,North,0,0.0,0.0,86,0.00,,,0.00,WUHU216HW,2013-12-06 09:09:00,
2013-12-06 03:14:00,32.0,28.4,29.48,North,0,0.0,0.0,86,0.00,,,0.00,WUHU216HW,2013-12-06 09:14:00,
2013-12-06 03:19:00,32.0,28.4,29.48,North,0,0.0,0.0,86,0.00,,,0.00,WUHU216HW,2013-12-06 09:19:00,
2013-12-06 03:24:00,32.0,28.4,29.47,North,0,0.0,0.0,86,0.00,,,0.00,WUHU216HW,2013-12-06 09:24:00,
2013-12-06 03:29:00,31.9,28.2,29.47,North,0,0.0,0.0,86,0.00,,,0.00,WUHU216HW,2013-12-06 09:29:00,
2013-12-06 03:34:00,31.9,27.9,29.47,North,0,0.0,0.0,85,0.00,,,0.00,WUHU216HW,2013-12-06 09:34:00,
2013-12-06 03:39:00,31.7,27.7,29.46,North,0,0.0,0.0,85,0.00,,,0.00,WUHU216HW,2013-12-06 09:39:00,
2013-12-06 03:44:00,31.7,27.7,29.47,North,0,0.0,0.0,85,0.00,,,0.00,WUHU216HW,2013-12-06 09:44:00,
2013-12-06 03:49:00,31.7,27.7,29.47,North,0,0.0,0.0,85,0.00,,,0.00,WUHU216HW,2013-12-06 09:49:00,
2013-12-06 03:54:00,31.7,27.7,29.47,North,0,0.0,0.0,85,0.00,,,0.00,WUHU216HW,2013-12-06 09:54:00,
2013-12-06 04:00:00,31.7,27.7,29.47,North,0,0.0,0.0,85,0.00,,,0.00,WUHU216HW,2013-12-06 10:00:00,
2013-12-06 04:05:00,31.7,27.7,29.48,North,0,0.0,0.0,85,0.00,,,0.00,WUHU216HW,2013-12-06 10:05:00,
2013-12-06 04:10:00,31.7,27.7,29.47,North,0,0.0,0.0,85,0.00,,,0.00,WUHU216HW,2013-12-06 10:10:00,
2013-12-06 04:15:00,31.7,27.5,29.47,North,0,0.0,0.0,84,0.00,,,0.00,WUHU216HW,2013-12-06 10:15:00,
2013-12-06 04:20:00,31.9,27.6,29.47,North,0,0.0,0.0,84,0.00,,,0.00,WUHU216HW,2013-12-06 10:20:00,
2013-12-06 04:25:00,32.0,27.6,29.48,North,0,0.0,0.0,83,0.00,,,0.00,WUHU216HW,2013-12-06 10:25:00,
2013-12-06 04:30:00,32.0,27.6,29.47,North,0,0.0,0.0,83,0.00,,,0.00,WUHU216HW,2013-12-06 10:30:00,
2013-12-06 04:35:00,32.0,27.6,29.47,North,0,0.0,0.0,83,0.00,,,0.00,WUHU216HW,2013-12-06 10:35:00,
2013-12-06 04:40:00,32.2,27.6,29.47,North,0,0.0,0.0,83,0.00,,,0.00,WUHU216HW,2013-12-06 10:40:00,
2013-12-06 04:45:00,32.4,28.1,29.48,North,0,0.0,0.0,84,0.00,,,0.00,WUHU216HW,2013-12-06 10:45:00,
2013-12-06 04:50:00,32.6,28.0,29.47,North,0,0.0,0.0,83,0.00,,,0.00,WUHU216HW,2013-12-06 10:50:00,
2013-12-06 04:55:00,32.6,28.0,29.47,North,0,0.0,0.0,83,0.00,,,0.00,WUHU216HW,2013-12-06 10:55:00,
2013-12-06 05:00:00,32.8,28.2,29.48,North,0,0.0,0.0,83,0.00,,,0.00,WUHU216HW,2013-12-06 11:00:00,
2013-12-06 05:05:00,32.8,28.4,29.48,North,0,0.0,0.0,84,0.00,,,0.00,WUHU216HW,2013-12-06 11:05:00,
2013-12-06 05:10:00,32.9,28.6,29.48,North,0,0.0,0.0,84,0.00,,,0.00,WUHU216HW,2013-12-06 11:10:00,
2013-12-06 05:15:00,32.9,28.6,29.48,North,0,0.0,0.0,84,0.00,,,0.00,WUHU216HW,2013-12-06 11:15:00,
2013-12-06 05:20:00,33.1,29.1,29.48,North,0,0.0,0.0,85,0.00,,,0.00,WUHU216HW,2013-12-06 11:20:00,
2013-12-06 05:25:00,33.3,28.9,29.48,North,0,0.0,0.0,84,0.00,,,0.00,WUHU216HW,2013-12-06 11:25:00,
2013-12-06 05:30:00,33.3,29.3,29.49,North,0,0.0,0.0,85,0.00,,,0.00,WUHU216HW,2013-12-06 11:30:00,
2013-12-06 05:36:00,33.5,29.3,29.49,North,0,0.0,0.0,85,0.00,,,0.00,WUHU216HW,2013-12-06 11:36:00,
2013-12-06 05:41:00,33.5,29.3,29.49,North,0,0.0,0.0,85,0.00,,,0.00,WUHU216HW,2013-12-06 11:41:00,
2013-12-06 05:46:00,33.5,29.3,29.49,North,0,0.0,0.0,85,0.00,,,0.00,WUHU216HW,2013-12-06 11:46:00,
2013-12-06 05:51:00,33.5,29.3,29.49,North,0,0.0,0.0,85,0.00,,,0.00,WUHU216HW,2013-12-06 11:51:00,
2013-12-06 05:56:00,33.7,29.5,29.50,North,0,0.0,0.0,85,0.00,,,0.00,WUHU216HW,2013-12-06 11:56:00,
2013-12-06 06:01:00,33.7,29.5,29.50,North,0,0.0,0.0,85,0.00,,,0.00,WUHU216HW,2013-12-06 12:01:00,
2013-12-06 06:06:00,33.7,29.5,29.51,North,0,0.0,0.0,85,0.00,,,0.00,WUHU216HW,2013-12-06 12:06:00,
2013-12-06 06:11:00,33.8,29.7,29.50,North,0,0.0,0.0,85,0.00,,,0.00,WUHU216HW,2013-12-06 12:11:00,
2013-12-06 06:16:00,33.8,30.0,29.51,North,0,0.0,0.0,86,0.00,,,0.00,WUHU216HW,2013-12-06 12:16:00,
2013-12-06 06:21:00,33.8,29.7,29.52,North,0,0.0,0.0,85,0.00,,,0.00,WUHU216HW,2013-12-06 12:21:00,
2013-12-06 06:26:00,33.8,29.7,29.52,North,0,0.0,0.0,85,0.00,,,0.00,WUHU216HW,2013-12-06 12:26:00,
2013-12-06 06:31:00,33.8,29.7,29.52,North,0,0.0,0.0,85,0.00,,,0.00,WUHU216HW,2013-12-06 12:31:00,
2013-12-06 06:36:00,33.8,29.7,29.52,North,0,0.0,0.0,85,0.00,,,0.00,WUHU216HW,2013-12-06 12:36:00,
2013-12-06 06:41:00,34.0,29.9,29.52,North,0,0.0,0.0,85,0.00,,,0.00,WUHU216HW,2013-12-06 12:41:00,
2013-12-06 06:46:00,33.8,29.7,29.52,North,0,0.0,0.0,85,0.00,,,0.00,WUHU216HW,2013-12-06 12:46:00,
2013-12-06 06:51:00,34.0,29.9,29.53,North,0,0.0,0.0,85,0.00,,,0.00,WUHU216HW,2013-12-06 12:51:00,
2013-12-06 06:56:00,33.8,29.7,29.53,North,0,0.0,0.0,85,0.00,,,0.00,WUHU216HW,2013-12-06 12:56:00,
2013-12-06 07:01:00,33.7,29.5,29.54,North,0,0.0,0.0,85,0.00,,,0.00,WUHU216HW,2013-12-06 13:01:00,
2013-12-06 07:06:00,33.7,29.5,29.54,North,0,0.0,0.0,85,0.00,,,0.00,WUHU216HW,2013-12-06 13:06:00,
2013-12-06 07:12:00,33.7,29.5,29.54,North,0,0.0,0.0,85,0.00,,,0.00,WUHU216HW,2013-12-06 13:12:00,
2013-12-06 07:17:00,33.5,29.3,29.55,North,0,0.0,0.0,85,0.00,,,0.00,WUHU216HW,2013-12-06 13:17:00,
2013-12-06 07:22:00,33.3,29.3,29.56,North,0,0.0,0.0,85,0.00,,,0.00,WUHU216HW,2013-12-06 13:22:00,
2013-12-06 07:27:00,33.1,29.1,29.57,North,0,0.0,0.0,85,0.00,,,0.00,WUHU216HW,2013-12-06 13:27:00,
2013-12-06 07:32:00,32.9,28.9,29.57,North,0,0.0,0.0,85,0.00,,,0.00,WUHU216HW,2013-12-06 13:32:00,
2013-12-06 07:37:00,32.9,28.9,29.56,North,0,0.0,0.0,85,0.00,,,0.00,WUHU216HW,2013-12-06 13:37:00,
2013-12-06 07:42:00,32.8,28.7,29.57,North,0,0.0,0.0,85,0.00,,,0.00,WUHU216HW,2013-12-06 13:42:00,
2013-12-06 07:47:00,32.8,28.7,29.57,North,0,0.0,0.0,85,0.00,,,0.00,WUHU216HW,2013-12-06 13:47:00,
2013-12-06 07:52:00,32.6,28.5,29.57,North,0,0.0,0.0,85,0.00,,,0.00,WUHU216HW,2013-12-06 13:52:00,
2013-12-06 07:57:00,32.6,28.5,29.58,North,0,0.0,0.0,85,0.00,,,0.00,WUHU216HW,2013-12-06 13:57:00,
2013-12-06 08:02:00,32.8,28.7,29.58,North,0,0.0,0.0,85,0.00,,,0.00,WUHU216HW,2013-12-06 14:02:00,
2013-12-06 08:07:00,32.8,28.7,29.59,North,0,0.0,0.0,85,0.00,,,0.00,WUHU216HW,2013-12-06 14:07:00,
2013-12-06 08:12:00,32.8,28.7,29.59,North,0,0.0,0.0,85,0.00,,,0.00,WUHU216HW,2013-12-06 14:12:00,
2013-12-06 08:17:00,32.8,28.4,29.58,North,0,0.0,0.0,84,0.00,,,0.00,WUHU216HW,2013-12-06 14:17:00,
2013-12-06 08:22:00,32.8,28.7,29.59,North,0,0.0,0.0,85,0.00,,,0.00,WUHU216HW,2013-12-06 14:22:00,
2013-12-06 08:27:00,32.9,28.4,29.59,North,0,0.0,0.0,83,0.00,,,0.00,WUHU216HW,2013-12-06 14:27:00,
2013-12-06 08:32:00,32.9,28.4,29.59,North,0,0.0,0.0,83,0.00,,,0.00,WUHU216HW,2013-12-06 14:32:00,
2013-12-06 08:37:00,33.1,28.4,29.60,North,0,0.0,0.0,83,0.00,,,0.00,WUHU216HW,2013-12-06 14:37:00,
2013-12-06 08:43:00,33.1,28.4,29.59,North,0,0.0,0.0,83,0.00,,,0.00,WUHU216HW,2013-12-06 14:43:00,
2013-12-06 08:48:00,33.3,28.6,29.60,North,0,0.0,0.0,83,0.00,,,0.00,WUHU216HW,2013-12-06 14:48:00,
2013-12-06 08:53:00,33.3,28.6,29.60,North,0,0.0,0.0,83,0.00,,,0.00,WUHU216HW,2013-12-06 14:53:00,
2013-12-06 08:58:00,33.5,28.8,29.61,North,0,0.0,0.0,83,0.00,,,0.00,WUHU216HW,2013-12-06 14:58:00,
2013-12-06 09:03:00,33.5,28.8,29.61,North,0,0.0,0.0,83,0.00,,,0.00,WUHU216HW,2013-12-06 15:03:00,
2013-12-06 09:08:00,33.5,28.8,29.62,North,0,0.0,0.0,83,0.00,,,0.00,WUHU216HW,2013-12-06 15:08:00,
2013-12-06 09:13:00,33.7,28.7,29.62,North,0,0.0,0.0,82,0.00,,,0.00,WUHU216HW,2013-12-06 15:13:00,
2013-12-06 09:18:00,33.5,28.5,29.62,North,0,0.0,0.0,82,0.00,,,0.00,WUHU216HW,2013-12-06 15:18:00,
2013-12-06 09:23:00,33.7,28.7,29.62,North,0,0.0,0.0,82,0.00,,,0.00,WUHU216HW,2013-12-06 15:23:00,
2013-12-06 09:28:00,33.8,28.5,29.62,North,0,0.0,0.0,81,0.00,,,0.00,WUHU216HW,2013-12-06 15:28:00,
2013-12-06 09:33:00,33.8,28.5,29.63,North,0,0.0,0.0,81,0.00,,,0.00,WUHU216HW,2013-12-06 15:33:00,
2013-12-06 09:38:00,34.2,29.5,29.63,North,0,0.0,0.0,83,0.00,,,0.00,WUHU216HW,2013-12-06 15:38:00,
2013-12-06 09:43:00,34.2,29.2,29.63,North,0,0.0,0.0,82,0.00,,,0.00,WUHU216HW,2013-12-06 15:43:00,
2013-12-06 09:48:00,34.4,29.3,29.63,North,0,0.0,0.0,82,0.00,,,0.00,WUHU216HW,2013-12-06 15:48:00,
2013-12-06 09:53:00,34.6,29.3,29.63,North,0,0.0,0.0,81,0.00,,,0.00,WUHU216HW,2013-12-06 15:53:00,
2013-12-06 09:58:00,34.6,29.3,29.63,North,0,0.0,0.0,81,0.00,,,0.00,WUHU216HW,2013-12-06 15:58:00,
2013-12-06 10:03:00,34.9,29.6,29.64,North,0,0.0,0.0,81,0.00,,,0.00,WUHU216HW,2013-12-06 16:03:00,
2013-12-06 10:08:00,34.9,29.6,29.64,North,0,0.0,0.0,81,0.00,,,0.00,WUHU216HW,2013-12-06 16:08:00,
2013-12-06 10:13:00,35.1,29.8,29.64,North,0,0.0,0.0,81,0.00,,,0.00,WUHU216HW,2013-12-06 16:13:00,
2013-12-06 10:18:00,35.3,29.7,29.64,North,0,0.0,0.0,80,0.00,,,0.00,WUHU216HW,2013-12-06 16:18:00,
2013-12-06 10:24:00,35.5,29.9,29.64,North,0,0.0,0.0,80,0.00,,,0.00,WUHU216HW,2013-12-06 16:24:00,
2013-12-06 10:29:00,35.6,30.1,29.64,North,0,0.0,0.0,80,0.00,,,0.00,WUHU216HW,2013-12-06 16:29:00,
2013-12-06 10:34:00,35.6,30.1,29.64,North,0,0.0,0.0,80,0.00,,,0.00,WUHU216HW,2013-12-06 16:34:00,
2013-12-06 10:39:00,35.6,30.1,29.65,North,0,0.0,0.0,80,0.00,,,0.00,WUHU216HW,2013-12-06 16:39:00,
2013-12-06 10:44:00,35.6,30.1,29.64,North,0,0.0,0.0,80,0.00,,,0.00,WUHU216HW,2013-12-06 16:44:00,
2013-12-06 10:49:00,35.8,30.2,29.64,North,0,0.0,0.0,80,0.00,,,0.00,WUHU216HW,2013-12-06 16:49:00,
2013-12-06 10:54:00,36.0,30.1,29.64,North,0,0.0,0.0,79,0.00,,,0.00,WUHU216HW,2013-12-06 16:54:00,
2013-12-06 10:59:00,36.0,30.1,29.64,North,0,0.0,0.0,79,0.00,,,0.00,WUHU216HW,2013-12-06 16:59:00,
2013-12-06 11:04:00,36.0,30.1,29.64,North,0,0.0,0.0,79,0.00,,,0.00,WUHU216HW,2013-12-06 17:04:00,
2013-12-06 11:09:00,36.0,30.1,29.64,North,0,0.0,0.0,79,0.00,,,0.00,WUHU216HW,2013-12-06 17:09:00,
2013-12-06 11:14:00,36.2,30.2,29.64,North,0,0.0,0.0,79,0.00,,,0.00,WUHU216HW,2013-12-06 17:14:00,
2013-12-06 11:19:00,36.4,30.2,29.64,North,0,0.0,0.0,78,0.00,,,0.00,WUHU216HW,2013-12-06 17:19:00,
2013-12-06 11:24:00,36.4,30.2,29.64,North,0,0.0,0.0,78,0.00,,,0.00,WUHU216HW,2013-12-06 17:24:00,
2013-12-06 11:29:00,36.4,30.2,29.64,North,0,0.0,0.0,78,0.00,,,0.00,WUHU216HW,2013-12-06 17:29:00,
2013-12-06 11:34:00,36.4,29.8,29.64,North,0,0.0,0.0,77,0.00,,,0.00,WUHU216HW,2013-12-06 17:34:00,
2013-12-06 11:39:00,36.4,30.2,29.64,North,0,0.0,0.0,78,0.00,,,0.00,WUHU216HW,2013-12-06 17:39:00,
2013-12-06 11:44:00,36.5,30.0,29.64,North,0,0.0,0.0,77,0.00,,,0.00,WUHU216HW,2013-12-06 17:44:00,
2013-12-06 11:49:00,36.7,30.2,29.64,North,0,0.0,0.0,77,0.00,,,0.00,WUHU216HW,2013-12-06 17:49:00,
2013-12-06 11:54:00,37.1,30.5,29.64,North,0,0.0,0.0,77,0.00,,,0.00,WUHU216HW,2013-12-06 17:54:00,
2013-12-06 12:00:00,37.3,30.7,29.64,North,0,0.0,0.0,77,0.00,,,0.00,WUHU216HW,2013-12-06 18:00:00,
2013-12-06 12:05:00,37.8,30.9,29.64,North,0,0.0,0.0,76,0.00,,,0.00,WUHU216HW,2013-12-06 18:05:00,
2013-12-06 12:10:00,38.2,31.6,29.64,North,0,0.0,0.0,77,0.00,,,0.00,WUHU216HW,2013-12-06 18:10:00,
2013-12-06 12:15:00,38.2,31.2,29.64,North,0,0.0,0.0,76,0.00,,,0.00,WUHU216HW,2013-12-06 18:15:00,
2013-12-06 12:20:00,38.5,32.0,29.64,North,0,0.0,0.0,77,0.00,,,0.00,WUHU216HW,2013-12-06 18:20:00,
2013-12-06 12:25:00,38.5,32.0,29.64,North,0,0.0,0.0,77,0.00,,,0.00,WUHU216HW,2013-12-06 18:25:00,
2013-12-06 12:30:00,38.3,31.4,29.64,North,0,0.0,0.0,76,0.00,,,0.00,WUHU216HW,2013-12-06 18:30:00,
2013-12-06 12:35:00,38.3,31.4,29.64,North,0,0.0,0.0,76,0.00,,,0.00,WUHU216HW,2013-12-06 18:35:00,
2013-12-06 12:40:00,38.7,31.4,29.64,North,0,0.0,0.0,75,0.00,,,0.00,WUHU216HW,2013-12-06 18:40:00,
2013-12-06 12:45:00,38.9,31.2,29.64,North,0,0.0,0.0,74,0.00,,,0.00,WUHU216HW,2013-12-06 18:45:00,
2013-12-06 12:50:00,39.1,31.4,29.63,North,0,0.0,0.0,74,0.00,,,0.00,WUHU216HW,2013-12-06 18:50:00,
2013-12-06 12:55:00,39.4,31.8,29.63,North,0,0.0,0.0,74,0.00,,,0.00,WUHU216HW,2013-12-06 18:55:00,
2013-12-06 13:00:00,39.8,31.4,29.63,North,0,0.0,0.0,72,0.00,,,0.00,WUHU216HW,2013-12-06 19:00:00,
2013-12-06 13:05:00,40.0,32.0,29.63,North,0,0.0,0.0,73,0.00,,,0.00,WUHU216HW,2013-12-06 19:05:00,
2013-12-06 13:10:00,39.4,31.4,29.63,North,0,0.0,0.0,73,0.00,,,0.00,WUHU216HW,2013-12-06 19:10:00,
2013-12-06 13:15:00,39.2,31.2,29.63,North,0,0.0,0.0,73,0.00,,,0.00,WUHU216HW,2013-12-06 19:15:00,
2013-12-06 13:21:00,39.2,31.2,29.63,North,0,0.0,0.0,73,0.00,,,0.00,WUHU216HW,2013-12-06 19:21:00,
2013-12-06 13:26:00,39.6,31.6,29.63,North,0,0.0,0.0,73,0.00,,,0.00,WUHU216HW,2013-12-06 19:26:00,
2013-12-06 13:31:00,39.6,31.6,29.63,North,0,0.0,0.0,73,0.00,,,0.00,WUHU216HW,2013-12-06 19:31:00,
2013-12-06 13:36:00,39.2,31.0,29.63,North,0,0.0,0.0,72,0.00,,,0.00,WUHU216HW,2013-12-06 19:36:00,
2013-12-06 13:41:00,39.4,31.2,29.63,North,0,0.0,0.0,72,0.00,,,0.00,WUHU216HW,2013-12-06 19:41:00,
2013-12-06 13:46:00,39.6,31.0,29.63,North,0,0.0,0.0,71,0.00,,,0.00,WUHU216HW,2013-12-06 19:46:00,
2013-12-06 13:51:00,39.2,30.6,29.63,North,0,0.0,0.0,71,0.00,,,0.00,WUHU216HW,2013-12-06 19:51:00,
2013-12-06 13:56:00,39.6,31.0,29.63,North,0,0.0,0.0,71,0.00,,,0.00,WUHU216HW,2013-12-06 19:56:00,
2013-12-06 14:01:00,39.6,30.6,29.63,North,0,0.0,0.0,70,0.00,,,0.00,WUHU216HW,2013-12-06 20:01:00,
2013-12-06 14:06:00,39.2,30.6,29.63,North,0,0.0,0.0,71,0.00,,,0.00,WUHU216HW,2013-12-06 20:06:00,
2013-12-06 14:11:00,38.9,30.2,29.63,North,0,0.0,0.0,71,0.00,,,0.00,WUHU216HW,2013-12-06 20:11:00,
2013-12-06 14:16:00,38.5,30.0,29.63,North,0,0.0,0.0,71,0.00,,,0.00,WUHU216HW,2013-12-06 20:16:00,
2013-12-06 14:21:00,38.5,30.0,29.63,North,0,0.0,0.0,71,0.00,,,0.00,WUHU216HW,2013-12-06 20:21:00,
2013-12-06 14:26:00,38.7,30.4,29.63,North,0,0.0,0.0,72,0.00,,,0.00,WUHU216HW,2013-12-06 20:26:00,
2013-12-06 14:31:00,38.5,29.6,29.63,North,0,0.0,0.0,70,0.00,,,0.00,WUHU216HW,2013-12-06 20:31:00,
2013-12-06 14:36:00,38.0,29.4,29.64,North,0,0.0,0.0,71,0.00,,,0.00,WUHU216HW,2013-12-06 20:36:00,
2013-12-06 14:41:00,38.0,29.4,29.64,North,0,0.0,0.0,71,0.00,,,0.00,WUHU216HW,2013-12-06 20:41:00,
2013-12-06 14:46:00,37.8,29.3,29.64,North,0,0.0,0.0,71,0.00,,,0.00,WUHU216HW,2013-12-06 20:46:00,
2013-12-06 14:51:00,38.0,29.1,29.64,North,0,0.0,0.0,70,0.00,,,0.00,WUHU216HW,2013-12-06 20:51:00,
2013-12-06 14:57:00,37.6,29.1,29.65,North,0,0.0,0.0,71,0.00,,,0.00,WUHU216HW,2013-12-06 20:57:00,
2013-12-06 15:02:00,37.3,28.8,29.65,North,0,0.0,0.0,71,0.00,,,0.00,WUHU216HW,2013-12-06 21:02:00,
2013-12-06 15:07:00,36.7,28.3,29.65,North,0,0.0,0.0,71,0.00,,,0.00,WUHU216HW,2013-12-06 21:07:00,
2013-12-06 15:12:00,36.5,28.1,29.64,North,0,0.0,0.0,71,0.00,,,0.00,WUHU216HW,2013-12-06 21:12:00,
2013-12-06 15:17:00,36.0,27.8,29.65,North,0,0.0,0.0,72,0.00,,,0.00,WUHU216HW,2013-12-06 21:17:00,
2013-12-06 15:22:00,36.0,27.8,29.65,North,0,0.0,0.0,72,0.00,,,0.00,WUHU216HW,2013-12-06 21:22:00,
2013-12-06 15:27:00,36.2,28.0,29.65,North,0,0.0,0.0,72,0.00,,,0.00,WUHU216HW,2013-12-06 21:27:00,
2013-12-06 15:32:00,36.4,28.2,29.65,North,0,0.0,0.0,72,0.00,,,0.00,WUHU216HW,2013-12-06 21:32:00,
2013-12-06 15:37:00,36.4,28.2,29.65,North,0,0.0,0.0,72,0.00,,,0.00,WUHU216HW,2013-12-06 21:37:00,
2013-12-06 15:42:00,36.2,27.7,29.65,North,0,0.0,0.0,71,0.00,,,0.00,WUHU216HW,2013-12-06 21:42:00,
2013-12-06 15:47:00,36.0,27.6,29.65,North,0,0.0,0.0,71,0.00,,,0.00,WUHU216HW,2013-12-06 21:47:00,
2013-12-06 15:52:00,36.0,27.6,29.66,North,0,0.0,0.0,71,0.00,,,0.00,WUHU216HW,2013-12-06 21:52:00,
2013-12-06 15:57:00,36.0,27.6,29.66,North,0,0.0,0.0,71,0.00,,,0.00,WUHU216HW,2013-12-06 21:57:00,
2013-12-06 16:02:00,36.0,27.6,29.66,North,0,0.0,0.0,71,0.00,,,0.00,WUHU216HW,2013-12-06 22:02:00,
2013-12-06 16:07:00,35.8,27.6,29.66,North,0,0.0,0.0,72,0.00,,,0.00,WUHU216HW,2013-12-06 22:07:00,
2013-12-06 16:12:00,35.6,27.5,29.66,North,0,0.0,0.0,72,0.00,,,0.00,WUHU216HW,2013-12-06 22:12:00,
2013-12-06 16:17:00,35.5,27.0,29.66,North,0,0.0,0.0,71,0.00,,,0.00,WUHU216HW,2013-12-06 22:17:00,
2013-12-06 16:22:00,35.1,26.9,29.67,North,0,0.0,0.0,72,0.00,,,0.00,WUHU216HW,2013-12-06 22:22:00,
2013-12-06 16:28:00,34.9,27.1,29.67,North,0,0.0,0.0,73,0.00,,,0.00,WUHU216HW,2013-12-06 22:28:00,
2013-12-06 16:33:00,34.9,27.1,29.68,North,0,0.0,0.0,73,0.00,,,0.00,WUHU216HW,2013-12-06 22:33:00,
2013-12-06 16:38:00,34.7,26.9,29.67,North,0,0.0,0.0,73,0.00,,,0.00,WUHU216HW,2013-12-06 22:38:00,
2013-12-06 16:43:00,34.9,27.1,29.68,North,0,0.0,0.0,73,0.00,,,0.00,WUHU216HW,2013-12-06 22:43:00,
2013-12-06 16:48:00,34.6,26.7,29.68,North,0,0.0,0.0,73,0.00,,,0.00,WUHU216HW,2013-12-06 22:48:00,
2013-12-06 16:53:00,34.4,26.6,29.68,North,0,0.0,0.0,73,0.00,,,0.00,WUHU216HW,2013-12-06 22:53:00,
2013-12-06 16:58:00,34.2,26.4,29.68,North,0,0.0,0.0,73,0.00,,,0.00,WUHU216HW,2013-12-06 22:58:00,
2013-12-06 17:03:00,34.2,26.0,29.69,North,0,0.0,0.0,72,0.00,,,0.00,WUHU216HW,2013-12-06 23:03:00,
2013-12-06 17:08:00,34.0,26.2,29.69,North,0,0.0,0.0,73,0.00,,,0.00,WUHU216HW,2013-12-06 23:08:00,
2013-12-06 17:13:00,33.8,26.0,29.69,North,0,0.0,0.0,73,0.00,,,0.00,WUHU216HW,2013-12-06 23:13:00,
2013-12-06 17:18:00,33.7,25.8,29.69,North,0,0.0,0.0,73,0.00,,,0.00,WUHU216HW,2013-12-06 23:18:00,
2013-12-06 17:23:00,33.5,25.7,29.69,North,0,0.0,0.0,73,0.00,,,0.00,WUHU216HW,2013-12-06 23:23:00,
2013-12-06 17:28:00,33.5,26.0,29.70,North,0,0.0,0.0,74,0.00,,,0.00,WUHU216HW,2013-12-06 23:28:00,
2013-12-06 17:33:00,33.3,26.2,29.70,North,0,0.0,0.0,75,0.00,,,0.00,WUHU216HW,2013-12-06 23:33:00,
2013-12-06 17:38:00,33.1,26.0,29.70,North,0,0.0,0.0,75,0.00,,,0.00,WUHU216HW,2013-12-06 23:38:00,
2013-12-06 17:43:00,33.1,26.0,29.70,North,0,0.0,0.0,75,0.00,,,0.00,WUHU216HW,2013-12-06 23:43:00,
2013-12-06 17:48:00,32.9,26.2,29.70,North,0,0.0,0.0,76,0.00,,,0.00,WUHU216HW,2013-12-06 23:48:00,
2013-12-06 17:53:00,32.8,26.0,29.70,North,0,0.0,0.0,76,0.00,,,0.00,WUHU216HW,2013-12-06 23:53:00,
2013-12-06 17:58:00,32.8,26.0,29.70,North,0,0.0,0.0,76,0.00,,,0.00,WUHU216HW,2013-12-06 23:58:00,
2013-12-06 18:03:00,32.8,26.0,29.70,North,0,0.0,0.0,76,0.00,,,0.00,WUHU216HW,2013-12-07 00:03:00,
2013-12-06 18:08:00,32.6,25.8,29.70,North,0,0.0,0.0,76,0.00,,,0.00,WUHU216HW,2013-12-07 00:08:00,
2013-12-06 18:14:00,32.6,25.8,29.71,North,0,0.0,0.0,76,0.00,,,0.00,WUHU216HW,2013-12-07 00:14:00,
2013-12-06 18:19:00,32.6,25.8,29.71,North,0,0.0,0.0,76,0.00,,,0.00,WUHU216HW,2013-12-07 00:19:00,
2013-12-06 18:24:00,32.6,25.8,29.71,North,0,0.0,0.0,76,0.00,,,0.00,WUHU216HW,2013-12-07 00:24:00,
2013-12-06 18:29:00,32.6,25.8,29.71,North,0,0.0,0.0,76,0.00,,,0.00,WUHU216HW,2013-12-07 00:29:00,
2013-12-06 18:34:00,32.6,25.8,29.72,North,0,0.0,0.0,76,0.00,,,0.00,WUHU216HW,2013-12-07 00:34:00,
2013-12-06 18:39:00,32.4,25.7,29.72,North,0,0.0,0.0,76,0.00,,,0.00,WUHU216HW,2013-12-07 00:39:00,
2013-12-06 18:44:00,32.4,26.0,29.72,North,0,0.0,0.0,77,0.00,,,0.00,WUHU216HW,2013-12-07 00:44:00,
2013-12-06 18:49:00,32.4,26.0,29.73,North,0,0.0,0.0,77,0.00,,,0.00,WUHU216HW,2013-12-07 00:49:00,
2013-12-06 18:54:00,32.4,26.0,29.73,North,0,0.0,0.0,77,0.00,,,0.00,WUHU216HW,2013-12-07 00:54:00,
2013-12-06 18:59:00,32.4,26.0,29.73,North,0,0.0,0.0,77,0.00,,,0.00,WUHU216HW,2013-12-07 00:59:00,
2013-12-06 19:04:00,32.4,26.0,29.73,North,0,0.0,0.0,77,0.00,,,0.00,WUHU216HW,2013-12-07 01:04:00,
2013-12-06 19:09:00,32.4,26.0,29.73,North,0,0.0,0.0,77,0.00,,,0.00,WUHU216HW,2013-12-07 01:09:00,
2013-12-06 19:14:00,32.4,26.0,29.73,North,0,0.0,0.0,77,0.00,,,0.00,WUHU216HW,2013-12-07 01:14:00,
2013-12-06 19:19:00,32.4,25.7,29.74,North,0,0.0,0.0,76,0.00,,,0.00,WUHU216HW,2013-12-07 01:19:00,
2013-12-06 19:24:00,32.4,25.7,29.74,North,0,0.0,0.0,76,0.00,,,0.00,WUHU216HW,2013-12-07 01:24:00,
2013-12-06 19:29:00,32.4,26.0,29.74,North,0,0.0,0.0,77,0.00,,,0.00,WUHU216HW,2013-12-07 01:29:00,
2013-12-06 19:31:00,32.2,25.8,29.74,North,0,0.0,0.0,77,0.00,,,0.00,WUHU216HW,2013-12-07 01:31:00,
2013-12-06 19:36:00,32.2,25.8,29.74,North,0,0.0,0.0,77,0.00,,,0.00,WUHU216HW,2013-12-07 01:36:00,
2013-12-06 19:42:00,32.2,25.8,29.75,North,0,0.0,0.0,77,0.00,,,0.00,WUHU216HW,2013-12-07 01:42:00,
2013-12-06 19:48:00,32.2,25.8,29.75,North,0,0.0,0.0,77,0.00,,,0.00,WUHU216HW,2013-12-07 01:48:00,
2013-12-06 19:52:00,32.2,25.8,29.75,North,0,0.0,0.0,77,0.00,,,0.00,WUHU216HW,2013-12-07 01:52:00,
2013-12-06 19:53:00,32.2,25.8,29.75,North,0,0.0,0.0,77,0.00,,,0.00,WUHU216HW,2013-12-07 01:53:00,
2013-12-06 19:58:00,32.2,25.8,29.75,North,0,0.0,0.0,77,0.00,,,0.00,WUHU216HW,2013-12-07 01:58:00,
2013-12-06 20:14:00,32.2,25.8,29.76,North,0,0.0,0.0,77,0.00,,,0.00,WUHU216HW,2013-12-07 02:14:00,
2013-12-06 20:19:00,32.0,25.7,29.76,North,0,0.0,0.0,77,0.00,,,0.00,WUHU216HW,2013-12-07 02:19:00,
2013-12-06 20:24:00,32.0,25.4,29.75,North,0,0.0,0.0,76,0.00,,,0.00,WUHU216HW,2013-12-07 02:24:00,
2013-12-06 20:29:00,32.0,25.4,29.76,North,0,0.0,0.0,76,0.00,,,0.00,WUHU216HW,2013-12-07 02:29:00,
2013-12-06 20:35:00,32.0,25.4,29.76,North,0,0.0,0.0,76,0.00,,,0.00,WUHU216HW,2013-12-07 02:35:00,
2013-12-06 20:40:00,32.0,25.4,29.76,North,0,0.0,0.0,76,0.00,,,0.00,WUHU216HW,2013-12-07 02:40:00,
2013-12-06 20:45:00,31.9,25.2,29.77,North,0,0.0,0.0,76,0.00,,,0.00,WUHU216HW,2013-12-07 02:45:00,
2013-12-06 20:47:00,31.9,25.2,29.77,North,0,0.0,0.0,76,0.00,,,0.00,WUHU216HW,2013-12-07 02:47:00,
2013-12-06 20:52:00,31.9,25.2,29.77,North,0,0.0,0.0,76,0.00,,,0.00,WUHU216HW,2013-12-07 02:52:00,
2013-12-06 20:59:00,31.7,25.0,29.77,North,0,0.0,0.0,76,0.00,,,0.00,WUHU216HW,2013-12-07 02:59:00,
2013-12-06 21:06:00,31.7,25.0,29.77,North,0,0.0,0.0,76,0.00,,,0.00,WUHU216HW,2013-12-07 03:06:00,
2013-12-06 21:18:00,31.7,25.0,29.77,North,0,0.0,0.0,76,0.00,,,0.00,WUHU216HW,2013-12-07 03:18:00,
2013-12-06 21:23:00,31.7,25.0,29.77,North,0,0.0,0.0,76,0.00,,,0.00,WUHU216HW,2013-12-07 03:23:00,
2013-12-06 21:28:00,31.7,25.0,29.77,North,0,0.0,0.0,76,0.00,,,0.00,WUHU216HW,2013-12-07 03:28:00,
2013-12-06 21:33:00,31.5,24.9,29.77,North,0,0.0,0.0,76,0.00,,,0.00,WUHU216HW,2013-12-07 03:33:00,
2013-12-06 21:38:00,31.5,24.9,29.77,North,0,0.0,0.0,76,0.00,,,0.00,WUHU216HW,2013-12-07 03:38:00,
2013-12-06 21:43:00,31.5,24.9,29.78,North,0,0.0,0.0,76,0.00,,,0.00,WUHU216HW,2013-12-07 03:43:00,
2013-12-06 21:48:00,31.3,24.7,29.78,North,0,0.0,0.0,76,0.00,,,0.00,WUHU216HW,2013-12-07 03:48:00,
2013-12-06 21:53:00,31.3,24.9,29.78,North,0,0.0,0.0,77,0.00,,,0.00,WUHU216HW,2013-12-07 03:53:00,
2013-12-06 21:58:00,31.3,24.7,29.78,North,0,0.0,0.0,76,0.00,,,0.00,WUHU216HW,2013-12-07 03:58:00,
2013-12-06 22:03:00,31.3,24.7,29.78,North,0,0.0,0.0,76,0.00,,,0.00,WUHU216HW,2013-12-07 04:03:00,
2013-12-06 22:09:00,31.3,24.7,29.78,North,0,0.0,0.0,76,0.00,,,0.00,WUHU216HW,2013-12-07 04:09:00,
2013-12-06 22:14:00,31.3,24.7,29.78,North,0,0.0,0.0,76,0.00,,,0.00,WUHU216HW,2013-12-07 04:14:00,
2013-12-06 22:19:00,31.1,24.5,29.78,North,0,0.0,0.0,76,0.00,,,0.00,WUHU216HW,2013-12-07 04:19:00,
2013-12-06 22:24:00,31.1,24.5,29.78,North,0,0.0,0.0,76,0.00,,,0.00,WUHU216HW,2013-12-07 04:24:00,
2013-12-06 22:29:00,31.0,24.3,29.78,North,0,0.0,0.0,76,0.00,,,0.00,WUHU216HW,2013-12-07 04:29:00,
2013-12-06 22:34:00,31.0,24.3,29.78,North,0,0.0,0.0,76,0.00,,,0.00,WUHU216HW,2013-12-07 04:34:00,
2013-12-06 22:39:00,31.0,24.3,29.79,North,0,0.0,0.0,76,0.00,,,0.00,WUHU216HW,2013-12-07 04:39:00,
2013-12-06 22:44:00,30.8,24.1,29.79,North,0,0.0,0.0,76,0.00,,,0.00,WUHU216HW,2013-12-07 04:44:00,
2013-12-06 22:49:00,30.8,24.1,29.79,North,0,0.0,0.0,76,0.00,,,0.00,WUHU216HW,2013-12-07 04:49:00,
2013-12-06 22:54:00,30.8,24.1,29.79,North,0,0.0,0.0,76,0.00,,,0.00,WUHU216HW,2013-12-07 04:54:00,
2013-12-06 22:59:00,30.6,24.0,29.79,North,0,0.0,0.0,76,0.00,,,0.00,WUHU216HW,2013-12-07 04:59:00,
2013-12-06 23:01:00,30.6,24.0,29.79,North,0,0.0,0.0,76,0.00,,,0.00,WUHU216HW,2013-12-07 05:01:00,
2013-12-06 23:06:00,30.6,24.0,29.80,North,0,0.0,0.0,76,0.00,,,0.00,WUHU216HW,2013-12-07 05:06:00,
2013-12-06 23:11:00,30.6,24.0,29.80,North,0,0.0,0.0,76,0.00,,,0.00,WUHU216HW,2013-12-07 05:11:00,
2013-12-06 23:16:00,30.6,24.0,29.80,North,0,0.0,0.0,76,0.00,,,0.00,WUHU216HW,2013-12-07 05:16:00,
2013-12-06 23:17:00,30.6,24.0,29.80,North,0,0.0,0.0,76,0.00,,,0.00,WUHU216HW,2013-12-07 05:17:00,
2013-12-06 23:22:00,30.4,23.8,29.79,North,0,0.0,0.0,76,0.00,,,0.00,WUHU216HW,2013-12-07 05:22:00,
2013-12-06 23:27:00,30.4,23.8,29.80,North,0,0.0,0.0,76,0.00,,,0.00,WUHU216HW,2013-12-07 05:27:00,
2013-12-06 23:32:00,30.2,23.2,29.80,North,0,0.0,0.0,75,0.00,,,0.00,WUHU216HW,2013-12-07 05:32:00,